Time,TemperatureF,DewpointF,PressureIn,WindDirection,WindDirectionDegrees,WindSpeedMPH,WindSpeedGustMPH,Humidity,HourlyPrecipIn,Conditions,Clouds,dailyrainin,SolarRadiationWatts/m^2,SoftwareType,DateUTC
2013-01-09 00:00:00,67.9,67.0,30.22,NNE,22,1.0,5.0,97,0.00,,,0.01,0,weatherlink.com 1.10,2013-01-09 05:00:00,
2013-01-09 00:15:00,67.7,67.0,30.22,NE,47,1.0,5.0,97,0.00,,,0.00,0,weatherlink.com 1.10,2013-01-09 05:15:00,
2013-01-09 00:30:00,67.7,67.0,30.22,North,5,2.0,6.0,97,0.00,,,0.00,0,weatherlink.com 1.10,2013-01-09 05:30:00,
2013-01-09 00:45:00,67.7,67.0,30.22,NE,54,0.0,5.0,97,0.00,,,0.00,0,weatherlink.com 1.10,2013-01-09 05:45:00,
2013-01-09 01:00:00,67.7,67.0,30.22,ENE,67,1.0,5.0,98,0.00,,,0.00,0,weatherlink.com 1.10,2013-01-09 06:00:00,
2013-01-09 01:15:00,67.7,67.0,30.22,NE,42,2.0,5.0,98,0.00,,,0.00,0,weatherlink.com 1.10,2013-01-09 06:15:00,
2013-01-09 01:30:00,67.7,67.0,30.22,NE,37,0.0,5.0,98,0.00,,,0.00,0,weatherlink.com 1.10,2013-01-09 06:30:00,
2013-01-09 01:44:00,67.7,67.0,30.22,ENE,59,0.0,2.0,98,0.00,,,0.00,0,weatherlink.com 1.10,2013-01-09 06:44:00,
2013-01-09 01:59:00,67.7,67.0,30.22,NE,50,0.0,2.0,98,0.00,,,0.00,0,weatherlink.com 1.10,2013-01-09 06:59:00,
2013-01-09 02:14:00,67.7,67.0,30.22,NE,50,0.0,2.0,98,0.00,,,0.00,0,weatherlink.com 1.10,2013-01-09 07:14:00,
2013-01-09 02:29:00,67.6,67.0,30.21,NE,50,2.0,3.0,98,0.00,,,0.00,0,weatherlink.com 1.10,2013-01-09 07:29:00,
2013-01-09 02:44:00,67.6,67.0,30.21,NE,34,0.0,3.0,98,0.00,,,0.00,0,weatherlink.com 1.10,2013-01-09 07:44:00,
2013-01-09 02:59:00,67.5,67.0,30.21,NE,49,1.0,3.0,98,0.00,,,0.00,0,weatherlink.com 1.10,2013-01-09 07:59:00,
2013-01-09 03:14:00,67.3,67.0,30.21,NNE,32,1.0,3.0,98,0.00,,,0.00,0,weatherlink.com 1.10,2013-01-09 08:14:00,
2013-01-09 03:29:00,67.2,67.0,30.21,ENE,57,0.0,3.0,98,0.00,,,0.00,0,weatherlink.com 1.10,2013-01-09 08:29:00,
2013-01-09 03:44:00,67.2,67.0,30.21,ENE,57,1.0,3.0,98,0.00,,,0.00,0,weatherlink.com 1.10,2013-01-09 08:44:00,
2013-01-09 03:59:00,67.1,67.0,30.21,ENE,59,1.0,2.0,98,0.00,,,0.00,0,weatherlink.com 1.10,2013-01-09 08:59:00,
2013-01-09 04:14:00,67.0,67.0,30.21,ENE,59,2.0,3.0,98,0.00,,,0.00,0,weatherlink.com 1.10,2013-01-09 09:14:00,
2013-01-09 04:29:00,67.0,67.0,30.21,ENE,59,0.0,4.0,99,0.00,,,0.00,0,weatherlink.com 1.10,2013-01-09 09:29:00,
2013-01-09 04:44:00,67.0,67.0,30.21,East,84,0.0,1.0,99,0.00,,,0.00,0,weatherlink.com 1.10,2013-01-09 09:44:00,
2013-01-09 04:59:00,66.8,67.0,30.21,East,84,0.0,0.0,99,0.00,,,0.00,0,weatherlink.com 1.10,2013-01-09 09:59:00,
2013-01-09 05:14:00,67.0,67.0,30.21,East,82,0.0,2.0,99,0.00,,,0.00,0,weatherlink.com 1.10,2013-01-09 10:14:00,
2013-01-09 05:29:00,67.2,67.0,30.22,East,91,1.0,3.0,99,0.00,,,0.00,0,weatherlink.com 1.10,2013-01-09 10:29:00,
2013-01-09 05:44:00,67.6,67.0,30.22,SE,124,1.0,3.0,99,0.00,,,0.00,0,weatherlink.com 1.10,2013-01-09 10:44:00,
2013-01-09 05:59:00,67.6,67.0,30.23,ESE,120,0.0,3.0,99,0.00,,,0.00,0,weatherlink.com 1.10,2013-01-09 10:59:00,
2013-01-09 06:14:00,67.6,67.0,30.23,NNE,29,0.0,2.0,99,0.00,,,0.00,0,weatherlink.com 1.10,2013-01-09 11:14:00,
2013-01-09 06:29:00,67.5,67.0,30.24,NNE,29,0.0,2.0,99,0.00,,,0.00,0,weatherlink.com 1.10,2013-01-09 11:29:00,
2013-01-09 06:44:00,67.1,67.0,30.24,NNE,27,2.0,3.0,99,0.00,,,0.00,0,weatherlink.com 1.10,2013-01-09 11:44:00,
2013-01-09 06:59:00,67.0,67.0,30.24,NNE,33,0.0,2.0,99,0.00,,,0.00,0,weatherlink.com 1.10,2013-01-09 11:59:00,
2013-01-09 07:14:00,66.8,67.0,30.24,ENE,61,2.0,4.0,99,0.00,,,0.00,0,weatherlink.com 1.10,2013-01-09 12:14:00,
2013-01-09 07:29:00,67.0,67.0,30.24,NNE,26,1.0,4.0,99,0.00,,,0.00,5,weatherlink.com 1.10,2013-01-09 12:29:00,
2013-01-09 07:44:00,67.4,67.0,30.25,NNE,26,0.0,2.0,99,0.00,,,0.00,14,weatherlink.com 1.10,2013-01-09 12:44:00,
2013-01-09 08:00:00,67.8,68.0,30.25,NNE,26,0.0,2.0,99,0.00,,,0.00,19,weatherlink.com 1.10,2013-01-09 13:00:00,
2013-01-09 08:15:00,68.0,68.0,30.27,NNE,28,1.0,4.0,99,0.00,,,0.00,35,weatherlink.com 1.10,2013-01-09 13:15:00,
2013-01-09 08:30:00,68.4,68.0,30.28,SE,130,0.0,3.0,99,0.00,,,0.00,30,weatherlink.com 1.10,2013-01-09 13:30:00,
2013-01-09 08:45:00,68.6,68.0,30.28,SE,130,0.0,3.0,99,0.00,,,0.00,33,weatherlink.com 1.10,2013-01-09 13:45:00,
2013-01-09 09:00:00,68.7,68.0,30.29,ESE,122,0.0,3.0,99,0.00,,,0.00,67,weatherlink.com 1.10,2013-01-09 14:00:00,
2013-01-09 09:15:00,69.0,69.0,30.29,ESE,122,1.0,5.0,99,0.00,,,0.00,100,weatherlink.com 1.10,2013-01-09 14:15:00,
2013-01-09 09:30:00,69.3,69.0,30.30,SE,126,1.0,4.0,99,0.00,,,0.00,113,weatherlink.com 1.10,2013-01-09 14:30:00,
2013-01-09 09:45:00,69.7,69.0,30.30,East,101,0.0,3.0,99,0.00,,,0.00,183,weatherlink.com 1.10,2013-01-09 14:45:00,
2013-01-09 10:00:00,70.0,70.0,30.30,ESE,120,3.0,6.0,99,0.00,,,0.00,197,weatherlink.com 1.10,2013-01-09 15:00:00,
2013-01-09 10:15:00,70.7,70.0,30.30,East,101,2.0,5.0,97,0.00,,,0.00,211,weatherlink.com 1.10,2013-01-09 15:15:00,
2013-01-09 10:30:00,71.4,70.0,30.30,East,79,0.0,6.0,95,0.00,,,0.00,188,weatherlink.com 1.10,2013-01-09 15:30:00,
2013-01-09 10:45:00,72.8,70.0,30.30,ESE,120,5.0,6.0,91,0.00,,,0.00,272,weatherlink.com 1.10,2013-01-09 15:45:00,
2013-01-09 11:00:00,74.2,71.0,30.30,SSE,153,1.0,7.0,89,0.00,,,0.00,257,weatherlink.com 1.10,2013-01-09 16:00:00,
2013-01-09 11:15:00,75.2,71.0,30.30,ESE,120,7.0,10.0,86,0.00,,,0.00,332,weatherlink.com 1.10,2013-01-09 16:15:00,
2013-01-09 11:30:00,75.7,71.0,30.29,ESE,122,2.0,7.0,85,0.00,,,0.00,264,weatherlink.com 1.10,2013-01-09 16:30:00,
2013-01-09 11:45:00,76.0,71.0,30.29,ESE,121,2.0,7.0,85,0.00,,,0.00,236,weatherlink.com 1.10,2013-01-09 16:45:00,
2013-01-09 12:00:00,76.7,71.0,30.28,SE,138,1.0,5.0,83,0.00,,,0.00,329,weatherlink.com 1.10,2013-01-09 17:00:00,
2013-01-09 12:15:00,76.9,71.0,30.27,SE,139,3.0,6.0,82,0.00,,,0.00,216,weatherlink.com 1.10,2013-01-09 17:15:00,
2013-01-09 12:30:00,76.8,71.0,30.27,SE,125,1.0,6.0,81,0.00,,,0.00,234,weatherlink.com 1.10,2013-01-09 17:30:00,
2013-01-09 12:45:00,77.0,70.0,30.26,ESE,118,3.0,4.0,80,0.00,,,0.00,179,weatherlink.com 1.10,2013-01-09 17:45:00,
2013-01-09 13:00:00,77.2,70.0,30.26,SSW,192,0.0,5.0,78,0.00,,,0.00,234,weatherlink.com 1.10,2013-01-09 18:00:00,
2013-01-09 13:15:00,77.3,70.0,30.25,SSW,205,0.0,5.0,79,0.00,,,0.00,253,weatherlink.com 1.10,2013-01-09 18:15:00,
2013-01-09 13:30:00,77.9,70.0,30.24,South,169,2.0,5.0,77,0.00,,,0.00,589,weatherlink.com 1.10,2013-01-09 18:30:00,
2013-01-09 13:46:00,78.5,69.0,30.24,SE,124,4.0,6.0,73,0.00,,,0.00,244,weatherlink.com 1.10,2013-01-09 18:46:00,
2013-01-09 14:01:00,78.4,69.0,30.24,ESE,110,1.0,5.0,73,0.00,,,0.00,192,weatherlink.com 1.10,2013-01-09 19:01:00,
2013-01-09 14:16:00,78.1,69.0,30.23,ESE,109,2.0,5.0,74,0.00,,,0.00,278,weatherlink.com 1.10,2013-01-09 19:16:00,
2013-01-09 14:31:00,78.6,71.0,30.23,SE,124,3.0,3.0,77,0.00,,,0.00,287,weatherlink.com 1.10,2013-01-09 19:31:00,
2013-01-09 14:46:00,78.7,71.0,30.23,SE,146,0.0,5.0,77,0.00,,,0.00,214,weatherlink.com 1.10,2013-01-09 19:46:00,
2013-01-09 15:01:00,79.8,72.0,30.23,ENE,60,1.0,6.0,76,0.00,,,0.00,462,weatherlink.com 1.10,2013-01-09 20:01:00,
2013-01-09 15:16:00,80.0,71.0,30.23,NNE,16,2.0,6.0,75,0.00,,,0.00,155,weatherlink.com 1.10,2013-01-09 20:16:00,
2013-01-09 15:31:00,79.8,71.0,30.23,East,101,1.0,8.0,74,0.00,,,0.00,359,weatherlink.com 1.10,2013-01-09 20:31:00,
2013-01-09 15:46:00,78.9,71.0,30.24,East,96,1.0,6.0,77,0.00,,,0.00,128,weatherlink.com 1.10,2013-01-09 20:46:00,
2013-01-09 16:01:00,78.3,71.0,30.24,East,91,7.0,8.0,78,0.00,,,0.00,260,weatherlink.com 1.10,2013-01-09 21:01:00,
2013-01-09 16:16:00,78.7,71.0,30.24,ENE,71,3.0,4.0,78,0.00,,,0.00,206,weatherlink.com 1.10,2013-01-09 21:16:00,
2013-01-09 16:31:00,78.8,70.0,30.24,ENE,71,1.0,4.0,75,0.00,,,0.00,153,weatherlink.com 1.10,2013-01-09 21:31:00,
2013-01-09 16:46:00,78.6,70.0,30.24,NNE,14,3.0,5.0,76,0.00,,,0.00,93,weatherlink.com 1.10,2013-01-09 21:46:00,
2013-01-09 17:01:00,78.0,70.0,30.24,East,79,5.0,6.0,77,0.00,,,0.00,46,weatherlink.com 1.10,2013-01-09 22:01:00,
2013-01-09 17:16:00,77.4,70.0,30.24,ENE,76,1.0,5.0,79,0.00,,,0.00,37,weatherlink.com 1.10,2013-01-09 22:16:00,
2013-01-09 17:31:00,76.9,70.0,30.25,East,80,0.0,5.0,80,0.00,,,0.00,16,weatherlink.com 1.10,2013-01-09 22:31:00,
2013-01-09 17:46:00,76.2,70.0,30.25,East,85,1.0,6.0,82,0.00,,,0.00,0,weatherlink.com 1.10,2013-01-09 22:46:00,
2013-01-09 18:01:00,75.8,70.0,30.25,ENE,57,0.0,4.0,82,0.00,,,0.00,0,weatherlink.com 1.10,2013-01-09 23:01:00,
2013-01-09 18:16:00,75.4,70.0,30.26,ENE,75,0.0,4.0,83,0.00,,,0.00,0,weatherlink.com 1.10,2013-01-09 23:16:00,
2013-01-09 18:31:00,74.8,70.0,30.26,NE,45,1.0,4.0,85,0.00,,,0.00,0,weatherlink.com 1.10,2013-01-09 23:31:00,
2013-01-09 18:46:00,74.3,70.0,30.26,ESE,109,2.0,3.0,85,0.00,,,0.00,0,weatherlink.com 1.10,2013-01-09 23:46:00,
2013-01-09 19:01:00,74.0,70.0,30.27,East,96,1.0,4.0,86,0.00,,,0.00,0,weatherlink.com 1.10,2013-01-10 00:01:00,
2013-01-09 19:16:00,73.7,69.0,30.28,East,86,1.0,7.0,86,0.00,,,0.00,0,weatherlink.com 1.10,2013-01-10 00:16:00,
2013-01-09 19:31:00,73.3,69.0,30.28,East,85,3.0,5.0,87,0.00,,,0.00,0,weatherlink.com 1.10,2013-01-10 00:31:00,
2013-01-09 19:46:00,72.9,69.0,30.29,ESE,112,2.0,5.0,88,0.00,,,0.00,0,weatherlink.com 1.10,2013-01-10 00:46:00,
2013-01-09 20:01:00,72.4,69.0,30.29,ENE,70,0.0,6.0,89,0.00,,,0.00,0,weatherlink.com 1.10,2013-01-10 01:01:00,
2013-01-09 20:16:00,72.1,69.0,30.29,ENE,66,1.0,5.0,89,0.00,,,0.00,0,weatherlink.com 1.10,2013-01-10 01:16:00,
2013-01-09 20:31:00,71.8,69.0,30.29,ENE,62,1.0,8.0,90,0.00,,,0.00,0,weatherlink.com 1.10,2013-01-10 01:31:00,
2013-01-09 20:46:00,71.7,69.0,30.29,NNE,19,0.0,9.0,90,0.00,,,0.00,0,weatherlink.com 1.10,2013-01-10 01:46:00,
2013-01-09 21:01:00,71.4,69.0,30.29,East,91,0.0,5.0,91,0.00,,,0.00,0,weatherlink.com 1.10,2013-01-10 02:01:00,
2013-01-09 21:16:00,71.0,69.0,30.29,East,91,2.0,5.0,92,0.00,,,0.00,0,weatherlink.com 1.10,2013-01-10 02:16:00,
2013-01-09 21:31:00,70.7,68.0,30.30,SSE,153,0.0,4.0,92,0.00,,,0.00,0,weatherlink.com 1.10,2013-01-10 02:31:00,
2013-01-09 21:46:00,70.4,68.0,30.30,ENE,57,1.0,4.0,93,0.00,,,0.00,0,weatherlink.com 1.10,2013-01-10 02:46:00,
2013-01-09 22:01:00,70.2,69.0,30.30,East,96,0.0,4.0,94,0.00,,,0.00,0,weatherlink.com 1.10,2013-01-10 03:01:00,
2013-01-09 22:16:00,70.1,68.0,30.31,East,101,2.0,6.0,94,0.00,,,0.00,0,weatherlink.com 1.10,2013-01-10 03:16:00,
2013-01-09 22:31:00,70.1,69.0,30.31,ESE,115,2.0,5.0,95,0.00,,,0.00,0,weatherlink.com 1.10,2013-01-10 03:31:00,
2013-01-09 22:46:00,70.0,69.0,30.31,South,190,1.0,6.0,95,0.00,,,0.00,0,weatherlink.com 1.10,2013-01-10 03:46:00,
2013-01-09 23:01:00,70.1,69.0,30.31,ESE,117,2.0,7.0,96,0.00,,,0.00,0,weatherlink.com 1.10,2013-01-10 04:01:00,
2013-01-09 23:16:00,70.0,69.0,30.30,East,101,6.0,8.0,96,0.00,,,0.00,0,weatherlink.com 1.10,2013-01-10 04:16:00,
2013-01-09 23:46:00,69.8,69.0,30.31,ESE,111,1.0,7.0,96,0.00,,,0.00,0,weatherlink.com 1.10,2013-01-10 04:46:00,